Location: Calvera
(42.3882°N, 0.6137°E)
Time: 23:14:08
(UTC+00:00)

Daily predictions for brighter satellites

Satellite Brightness Start Highest point End
(mag) Time Altitude Azimuth Time Altitude Azimuth Time Altitude Azimuth
Starlink Q 3.7 17:22:22 10° WSW 17:25:11 39° NNW 17:28:01 10° NE
Starlink P 3.8 17:23:44 10° WSW 17:26:32 38° NNW 17:29:21 10° NE
Starlink U 3.8 17:25:05 10° W 17:27:53 37° NNW 17:30:41 10° NE
CZ-4 R/B 2.6 17:25:52 10° ESE 17:29:00 22° ENE 17:32:12 10° NNE
Starlink B 3.9 17:26:28 10° W 17:29:14 36° NNW 17:32:03 10° NE
Cosmos 1048 Rocket 4.0 17:24:09 10° NNW 17:29:14 59° ENE 17:34:16 10° SSE
Alouette 2 Rocket 4.4 17:26:00 10° N 17:30:52 74° E 17:38:26 10° SSE
Cosmos 372 Rocket 4.2 17:27:02 10° SSW 17:32:08 73° WNW 17:37:19 10° NNE
Cosmos 1607 4.0 17:27:22 10° SW 17:33:30 85° NW 17:39:42 10° NNE
Starlink D 4.0 17:32:04 10° W 17:34:50 33° NNW 17:37:37 10° NE
SJ 16-02 4.0 17:32:32 10° W 17:35:21 16° WNW 17:38:13 10° NNW
Starlink S 4.1 17:33:31 10° W 17:36:16 32° NNW 17:39:02 10° NE
Starlink C 4.1 17:34:55 10° W 17:37:40 32° NNW 17:40:25 10° NE
Starlink E 4.1 17:36:23 10° W 17:39:08 31° NNW 17:41:51 10° NE
Starlink J 4.2 17:37:50 10° W 17:40:34 30° NNW 17:43:17 10° NE
Cosmos 468 4.5 17:35:55 10° NNW 17:41:10 84° ENE 17:46:24 10° SSE
Starlink V 4.2 17:39:17 10° W 17:41:59 30° NNW 17:44:42 10° NE
Starlink H 4.3 17:40:45 10° W 17:43:27 29° NNW 17:46:09 10° NE
Starlink F 4.3 17:42:14 10° W 17:44:55 29° NNW 17:47:34 10° NE
Starlink G 4.3 17:43:42 10° W 17:46:22 28° NNW 17:48:57 11° NE
Starlink L 4.4 17:45:10 10° W 17:47:49 27° NNW 17:50:21 11° NE
Starlink A 4.4 17:46:40 10° W 17:49:18 27° NNW 17:51:46 11° NNE
ERBS 3.2 17:47:03 10° SSW 17:50:04 32° SE 17:52:10 16° ENE
Starlink R 4.4 17:48:09 10° W 17:50:46 26° NNW 17:53:11 11° NNE
SKYMED 2 3.7 17:47:25 10° NNE 17:51:41 53° E 17:55:55 10° S
Starlink K 4.5 17:49:36 10° W 17:52:13 26° NNW 17:54:34 12° NNE
Starlink M 4.5 17:51:02 10° W 17:53:38 25° NNW 17:55:55 12° NNE
SMAP 4.2 17:50:05 10° S 17:54:33 47° W 17:59:04 10° NNW
CZ-2D R/B 4.2 17:55:46 10° SE 17:58:55 25° ENE 18:02:06 10° NNE
USA 267 4.4 17:54:29 10° NE 18:00:12 34° NNW 18:05:56 10° W
ATLAS CENTAUR R/B 4.4 17:56:21 10° W 18:01:40 46° NNW 18:15:08 11° NE
Ariane Rocket 4.2 18:00:10 10° ESE 18:03:48 20° ENE 18:07:28 10° NNE
Cosmos 1812 Rocket 3.5 17:59:22 10° N 18:03:52 85° E 18:08:20 10° S
Shenzhou-11 Module 3.9 18:02:17 10° S 18:03:52 14° SSE 18:04:36 13° SE
USA 116 4.0 18:02:58 19° NE 18:04:38 30° E 18:07:25 10° SSE
Cosmos 494 Rocket 3.9 18:00:09 10° NNW 18:05:16 69° ENE 18:10:21 10° SSE
Cosmos 2237 Rocket 2.3 17:59:47 10° NNW 18:05:17 51° ENE 18:10:44 10° SE
Cosmos 2333 Rocket 2.9 18:00:15 10° NNW 18:05:51 58° WSW 18:11:24 10° S
Cosmos 1300 3.2 18:03:13 10° NNW 18:07:01 63° W 18:10:46 10° S
Cosmos 1241 Rocket 4.4 18:01:54 10° NNW 18:08:05 65° NE 18:14:17 10° SE
Cosmos 2154 Rocket 4.2 18:02:27 10° SSW 18:08:44 77° W 18:15:01 10° N
YAOGAN 1 2.7 18:05:55 10° SSE 18:10:04 49° ENE 18:14:16 10° N
Meteor 1-21 Rocket 4.2 18:08:44 10° S 18:14:12 62° E 18:19:48 10° NNE
Cosmos 1340 Rocket 3.0 18:12:36 10° NNW 18:16:33 71° W 18:20:30 10° S
CSL-04 Rocket 3.7 18:13:00 10° SSE 18:18:22 60° ENE 18:23:50 10° N
Cosmos-2242 3.2 18:16:02 10° N 18:20:14 47° ENE 18:24:22 10° SSE
Cosmos 1626 3.9 18:18:53 10° SW 18:22:14 32° WNW 18:25:37 10° NNW
Cosmos 1455 2.7 18:19:34 10° N 18:23:07 35° ENE 18:26:37 10° SE
YAOGAN 6 3.7 18:20:18 10° S 18:23:52 48° W 18:27:28 10° NNW
SL-16 R/B 3.0 18:20:56 10° N 18:25:54 30° NE 18:27:14 27° E
ATLAS 5 CENTAUR R/B 4.2 18:24:40 10° NW 18:26:48 13° NNW 18:29:02 10° N
USA 32 4.0 18:22:58 10° S 18:28:12 85° W 18:33:28 10° N
Cosmos 2219 3.2 18:23:20 10° SSW 18:28:56 84° WNW 18:34:25 11° NNE
DELTA 2 R/B (1) 3.9 18:26:37 10° WSW 18:32:06 59° SSE 18:34:49 29° ESE
Cosmos 2082 4.1 18:27:33 10° S 18:32:43 40° ESE 18:34:40 30° ENE
Cosmos 1939 Rocket 2.6 18:32:27 10° SSE 18:36:18 70° ENE 18:40:14 10° N
Cosmos 2366 rocket 4.0 18:31:09 10° S 18:37:12 59° E 18:43:20 10° NNE
COSMO-SKYMED 1 3.6 18:35:36 10° N 18:39:45 45° WNW 18:43:52 10° SW
Cosmos 1953 Rocket 3.5 18:36:15 10° S 18:40:42 70° E 18:44:04 17° NNE
CZ-4C R/B 3.4 18:34:37 10° NW 18:41:57 65° WSW 18:50:10 10° SSE
BREEZE-M DEB (TANK) 2.8 18:41:55 10° WSW 18:43:51 48° NW 18:43:51 48° NW
Cosmos 2297 Rocket 2.1 18:38:36 10° SSW 18:44:15 90° NE 18:48:25 19° NNE
Cosmos 1758 Rocket 4.1 18:41:45 10° SSW 18:46:00 58° W 18:50:15 10° N
Cosmos 1932 4.4 18:39:41 10° SSW 18:46:02 83° ESE 18:50:04 25° NE
Cosmos 1980 3.9 18:41:40 10° NNW 18:47:21 71° WSW 18:52:59 10° SSE
Cosmos 2227 Rocket 2.2 18:50:44 10° SSW 18:56:23 80° WNW 18:59:59 24° NNE
ATLAS CENTAUR R/B 3.9 18:54:44 10° N 18:54:50 10° N 18:54:50 10° N
ISS -2.7 18:57:27 10° SW 18:59:48 41° SSW 18:59:48 41° SSW
Cosmos 1703 3.2 18:58:31 10° S 19:02:18 81° SSW 19:02:18 81° SSW
CZ-4 R/B 3.4 19:00:20 10° SSW 19:03:51 30° W 19:07:29 10° NW
Cosmos 1727 Rocket 3.8 18:57:50 10° N 19:04:02 67° E 19:10:09 10° SSE
Meteor 2-12 Rocket 4.3 19:09:02 10° S 19:15:00 64° E 19:15:29 62° ENE
Cosmos 44 3.2 19:12:29 10° SW 19:16:42 72° SW 19:16:42 72° SW
SL-8 R/B 3.7 19:12:23 10° WSW 19:16:53 77° SW 19:16:53 77° SW
Atlas Centaur 2 3.9 19:17:53 10° SSW 19:21:21 19° SSE 19:21:21 19° SSE
ADEOS Rocket 3.3 19:17:58 10° NNE 19:24:31 82° WNW 19:31:45 10° SSW
Ariane Rocket 3.7 19:40:06 30° SSW 19:42:22 52° W 19:47:20 10° NNW
FALCON 9 R/B 4.0 19:33:06 10° SW 19:43:40 28° S 19:44:06 27° S
Cosmos 2237 Rocket 4.4 19:44:36 10° NW 19:48:56 23° W 19:53:16 10° SSW
H-2A R/B 4.4 19:55:45 13° NNW 19:55:45 13° NNW 19:56:15 10° NNW
SL-16 R/B 3.4 20:04:48 10° NW 20:09:13 40° W 20:09:13 40° W
ATLAS 5 CENTAUR R/B 4.1 20:20:26 10° NW 20:55:42 - SE 20:24:36 59° N
